AirNav   ATP
 
 421 users online  

2OK2 Twin Lakes Airport
Midwest City, Oklahoma, USA

GOING TO MIDWEST CITY?


FAA INFORMATION EFFECTIVE 19 JULY 2018

Location

FAA Identifier: 2OK2
Lat/Long: 35-19-45.2390N / 097-16-11.1080W
35-19.753983N / 097-16.185133W
35.3292331 / -97.2697522
(estimated)
Elevation: 1199 ft. / 365 m (estimated)
Variation: 07E (1985)
From city: 10 miles SE of MIDWEST CITY, OK
Time zone: UTC -5 (UTC -6 during Standard Time)
Zip code: 73165

Airport Operations

Airport use: Private use. Permission required prior to landing
Control tower: no
ARTCC: FORT WORTH CENTER
FSS: MC ALESTER FLIGHT SERVICE STATION
Attendance: UNATNDD
Wind indicator: yes
Segmented circle: no
Lights: ACTVT LIRL RY N/S - 122.7.

Airport Communications

UNICOM: 122.7
WX AWOS-3 at OUN (11 nm SW): 119.55 (405-325-7302)
WX AWOS-3 at SNL (16 nm E): 118.275 (405-878-1745)
WX ASOS at OKC (17 nm W): PHONE 405-686-4711

Nearby radio navigation aids

VOR radial/distance  VOR name  Freq  Var
IRWr089/16.7WILL ROGERS VORTAC114.1007E
PWAr116/22.1WILEY POST VOR/DME113.4008E

 
NDB name  Hdg/Dist  Freq  Var  ID
MULDROW348/18.151206EHMY .... -- -.--
SEMINOLE271/29.327806ESRE ... .-. .

Airport Services

Airframe service: NONE
Powerplant service: NONE

Runway Information

Runway N/S

Dimensions: 2702 x 30 ft. / 824 x 9 m
Surface: concrete
Runway edge lights: low intensity
RUNWAY N  RUNWAY S
Traffic pattern: rightleft
Obstructions: 300 ft. pline, 4000 ft. from runwaynone

Airport Ownership and Management from official FAA records

Ownership: Privately-owned
Owner: PILOTS HAVEN AIRPORT INC
13800 CHANDELLE DRIVE
NEWALLA, OK 74857
Phone 405-819-6671
Manager: SANDY SHARPE
13800 SKY HARBOR WAY
NEWALLA, OK 74857
Phone 405-819-6671

Airport Operational Statistics

Aircraft based on the field: 16
Single engine airplanes: 15
Multi engine airplanes: 1
    

Additional Remarks

SHARP DROP OFF AT EACH END OF RWY.
HIGH LINE AT RIGHT ANGLE TO RWY-APRX 3/4MI FM S END OF RWY.
AIRPORT TRAFFIC REMAIN EAST OF RY.

Instrument Procedures

There are no published instrument procedures at 2OK2.

Some nearby airports with instrument procedures:

KTIK - Tinker Air Force Base (8 nm NW)
KOUN - University of Oklahoma Westheimer Airport (11 nm SW)
1K4 - David Jay Perry Airport (14 nm SW)
KSNL - Shawnee Regional Airport (16 nm E)
KOKC - Will Rogers World Airport (17 nm W)
KHMY - Muldrow Army Heliport (18 nm S)
 
Loc | Ops | Rwys | IFR | FBO | Links
Com | Nav | Svcs | Stats | Notes


 
Area around 2OK2 (Twin Lakes Airport)
 
Road maps at: MapQuest Bing Google
 
Aerial photo
WARNING: Photo may not be current or correct
Aerial photo of 2OK2 (Twin Lakes Airport)
Do you have a better or more recent aerial photo of Twin Lakes Airport that you would like to share? If so, please send us your photo.

 
Sectional chart

 
Airport distance calculator
Flying to Twin Lakes Airport? Find the distance to fly.

From to 2OK2

Sunrise and sunset
Times for 19-Jul-2018
 Local
(UTC-5)
 Zulu
(UTC)
Morning civil twilight06:0011:00
Sunrise06:2911:29
Sunset20:4101:41
Evening civil twilight21:1002:10

Current date and time
Zulu (UTC)  19-Jul-2018 06:41:34
Local (UTC-5)  19-Jul-2018 01:41:34
 
METAR
KTIK 
7nm NW 
190556Z AUTO 10004KT 10SM CLR 25/21 A2990 RMK AO2 SLP118 T02460209 10311 20246 403210240 50004 $
KOUN 
11nm SW 
190615Z AUTO 09006KT 10SM CLR 26/22 A2987 RMK AO2 T02600224
KSNL 
16nm E 
190615Z AUTO 06004KT 10SM CLR 24/22 A2990 RMK AO2 T02410222
KOKC 
16nm W 
190552Z 11008KT 10SM FEW250 26/21 A2990 RMK AO2 SLP108 T02560211 10311 20256 403170244 50006
KHMY 
18nm S 
SuperAWOS
190555Z AUTO 00000KT 10SM 25/23 A2989
TAF
KTIK 
7nm NW 
190100Z 1901/2007 13009KT 9999 SKC QNH2982INS BECMG 1914/1915 21010G20KT 9999 SCT100 BKN150 QNH2986INS BECMG 2002/2003 18006KT 9999 SKC QNH2980INS TX41/1922Z TN24/1912Z
KOUN 
11nm SW 
190520Z 1906/2006 09005KT P6SM SCT250 FM191300 19010KT P6SM FEW120
KOKC 
16nm W 
190520Z 1906/2006 10006KT P6SM SCT250 FM191300 19010KT P6SM FEW120
NOTAMs
Click for the latest NOTAMs
NOTAMs are issued by the DoD/FAA and will open in a separate window not controlled by AirNav.

 

 
 

Would you like to see your business listed on this page?

 If your business provides an interesting product or service to pilots, flight crews, aircraft, or users of the Twin Lakes Airport, you should consider listing it here.  To start the listing process, click on the button below
 
Add a business
 

Other Pages about Twin Lakes Airport

Update a link
 
Copyright © AirNav, LLC. All rights reserved. Privacy Policy  Contact